Location: Unspecified
(0.0000°N, 0.0000°E)
Time: 05:08:32
(UTC+00:00)

SJ-6F - Pass Details

Date: 09 August 2021
Orbit: 570 x 594 km, 97.8° (Epoch: 26 September)

Event Time Altitude Azimuth Distance (km) Brightness Sun altitude
Rises 04:37:47 0° 354° (N) 2,763 8.0 -21.1°
Reaches altitude 10° 04:40:07 10° 343° (NNW) 1,866 7.0 -20.5°
Enters shadow 04:42:04 22° 321° (NW) 1,252 5.9 -20.1°
